Le nostre stazioni meteo in Italia

Pubblicità
Il mio iltempo24.it
Napoli/Capodichino, Italia (16289): Temperatura & dewpoint: 12.03.2019 20:00:00 - 18.03.2019 20:00:00 (CET)Napoli/Capodichino, Italia (16289): velocità del vento: 12.03.2019 20:00:00 - 18.03.2019 20:00:00 (CET)Napoli/Capodichino, Italia (16289): direzione del vento: 12.03.2019 20:00:00 - 18.03.2019 20:00:00 (CET)Napoli/Capodichino, Italia (16289): reduced air pressure: 12.03.2019 20:00:00 - 18.03.2019 20:00:00 (CET)Napoli/Capodichino, Italia (16289): visibility: 12.03.2019 20:00:00 - 18.03.2019 20:00:00 (CET)Napoli/Capodichino, Italia (16289): precipitazioni: 12.03.2019 20:00:00 - 18.03.2019 20:00:00 (CET)
Data & Tempo tt [°C] td [°C] ff [km/h] ff [kn] dd ppp [hPa] vv [km] rr [mm]
18.03.2019 20:00:00 13,0 10,0 5 3 S - 10 -
18.03.2019 19:00:00 13,5 9,8 9 5 SSO 1015,5 10 -
18.03.2019 18:00:00 14,0 10,0 9 5 OSO - 10 -
18.03.2019 17:00:00 14,0 10,0 11 6 SSO - 10 -
18.03.2019 16:00:00 13,9 9,7 13 7 SSO 1015,1 10 0,0
18.03.2019 15:00:00 15,0 9,0 18 10 SO - 10 -
18.03.2019 14:00:00 16,0 9,0 15 8 SSO - 10 -
18.03.2019 13:00:00 15,0 9,1 15 8 SSO 1015,3 10 -
18.03.2019 12:00:00 14,0 9,0 13 7 SSO - 10 -
18.03.2019 11:00:00 14,0 9,0 13 7 SSO - 10 -
18.03.2019 10:00:00 14,4 9,0 11 6 SSO 1015,8 10 0,0
18.03.2019 09:00:00 13,0 9,0 11 6 SSO - 10 -
18.03.2019 08:00:00 13,0 9,0 9 5 SSO - 10 -
18.03.2019 07:00:00 12,2 9,2 5 3 SSO 1015,0 10 -
18.03.2019 06:00:00 11,0 9,0 9 5 OSO - 10 -
18.03.2019 05:00:00 11,0 10,0 9 5 O - 10 -
18.03.2019 04:00:00 10,6 9,0 2 1 O 1014,1 10 0,0
18.03.2019 03:00:00 12,0 10,0 5 3 ESE - 10 -
18.03.2019 02:00:00 13,0 10,0 5 3 SSO - 10 -
18.03.2019 01:00:00 13,0 9,8 4 2 - 1015,6 10 -
18.03.2019 00:00:00 13,0 10,0 2 1 - - 10 -
17.03.2019 23:00:00 12,0 11,0 2 1 - - 10 -
17.03.2019 22:00:00 12,3 10,1 2 1 - 1015,8 10 0,0
17.03.2019 21:00:00 13,0 9,0 4 2 - - 10 -
17.03.2019 20:00:00 13,0 8,0 5 3 SSO - 10 -
17.03.2019 19:00:00 13,5 9,5 5 3 SSO 1016,2 10 -
17.03.2019 18:00:00 14,0 10,0 11 6 SSO - 10 -
17.03.2019 17:00:00 15,0 10,0 15 8 SSO - 10 -
17.03.2019 16:00:00 16,0 9,4 15 8 SO 1016,4 10 0,0
17.03.2019 15:00:00 17,0 9,0 15 8 SSO - 10 -
17.03.2019 14:00:00 17,0 9,0 13 7 SSO - 10 -
17.03.2019 13:00:00 16,6 9,1 15 8 S 1018,1 10 -
17.03.2019 12:00:00 16,0 9,0 11 6 S - 10 -
17.03.2019 11:00:00 16,0 10,0 9 5 SSO - 10 -
17.03.2019 10:00:00 14,8 9,1 5 3 - 1019,6 10 0,0
17.03.2019 09:00:00 12,0 10,0 5 3 E - 10 -
17.03.2019 08:00:00 11,0 9,0 4 2 NNE - 10 -
17.03.2019 07:00:00 9,1 8,2 4 2 NNE 1018,8 10 -
17.03.2019 06:00:00 10,0 9,0 2 1 - - 10 -
17.03.2019 05:00:00 8,0 8,0 2 1 ONO - 10 -
17.03.2019 04:00:00 7,6 7,1 4 2 N 1018,8 10 0,0
17.03.2019 03:00:00 9,0 9,0 4 2 - - 10 -
17.03.2019 02:00:00 8,0 8,0 4 2 NNE - 10 -
17.03.2019 01:00:00 8,2 7,6 4 2 NE 1020,2 10 -
17.03.2019 00:00:00 11,0 10,0 2 1 - - 10 -
16.03.2019 23:00:00 11,0 10,0 4 2 S - 10 -
16.03.2019 22:00:00 12,5 11,0 2 1 - 1020,8 10 0,0
16.03.2019 21:00:00 12,0 11,0 8 4 SSO - 10 -
16.03.2019 20:00:00 13,0 11,0 9 5 SSO - 10 -
16.03.2019 19:00:00 12,8 11,2 9 5 SSO 1019,8 10 -
16.03.2019 18:00:00 14,0 12,0 13 7 S - 10 -
16.03.2019 17:00:00 15,0 12,0 11 6 S - 10 -
16.03.2019 16:00:00 14,8 11,3 13 7 S 1019,7 8 0,0
16.03.2019 15:00:00 15,0 11,0 15 8 SSO - 9 -
16.03.2019 14:00:00 15,0 11,0 13 7 SSO - 9 -
16.03.2019 13:00:00 14,9 10,9 15 8 SSO 1020,7 8 -
16.03.2019 12:00:00 15,0 10,0 13 7 SSO - 8 -
16.03.2019 11:00:00 14,0 11,0 11 6 SSO - 9 -
16.03.2019 10:00:00 13,6 10,3 11 6 SSO 1021,0 8 0,0
16.03.2019 09:00:00 13,0 10,0 8 4 S - 8 -
16.03.2019 08:00:00 13,0 11,0 5 3 S - 8 -
16.03.2019 07:00:00 12,4 10,8 5 3 S 1019,8 8 -
16.03.2019 06:00:00 13,0 11,0 5 3 S - 10 -
16.03.2019 05:00:00 13,0 11,0 8 4 SSO - 10 -
16.03.2019 04:00:00 12,3 10,5 5 3 S 1019,0 8 0,0
16.03.2019 03:00:00 12,0 10,0 5 3 S - 10 -
16.03.2019 02:00:00 12,0 10,0 4 2 - - 10 -
16.03.2019 01:00:00 12,4 9,0 5 3 S 1019,0 10 -
16.03.2019 00:00:00 12,0 8,0 4 2 - - 10 -
15.03.2019 23:00:00 11,0 8,0 4 2 - - 10 -
15.03.2019 22:00:00 11,4 7,7 5 3 SSO 1018,0 10 0,0
15.03.2019 21:00:00 12,0 7,0 5 3 SO - 10 -
15.03.2019 20:00:00 12,0 8,0 4 2 S - 10 -
15.03.2019 19:00:00 12,4 8,0 5 3 S 1016,8 10 -
15.03.2019 18:00:00 14,0 3,0 11 6 O - 10 -
15.03.2019 17:00:00 15,0 5,0 11 6 SSO - 10 -
15.03.2019 16:00:00 15,6 6,7 18 10 O 1015,1 10 0,0
15.03.2019 15:00:00 16,0 6,0 16 9 ONO - 10 -
15.03.2019 14:00:00 16,0 8,0 15 8 S - 10 -
15.03.2019 13:00:00 15,0 6,9 15 8 S 1015,0 10 -
15.03.2019 12:00:00 14,0 8,0 13 7 SSO - 10 -
15.03.2019 11:00:00 15,0 8,0 8 4 - - 10 -
15.03.2019 10:00:00 13,8 7,5 4 2 - 1014,4 10 0,0
15.03.2019 09:00:00 12,0 7,0 5 3 NE - 10 -
15.03.2019 08:00:00 10,0 8,0 4 2 - - 10 -
15.03.2019 07:00:00 6,7 5,3 2 1 - 1012,3 10 -
15.03.2019 06:00:00 5,0 4,0 4 2 - - 10 -
15.03.2019 05:00:00 8,0 6,0 4 2 - - 10 -
15.03.2019 04:00:00 8,1 5,9 4 2 - 1011,7 10 0,0
15.03.2019 03:00:00 9,0 7,0 2 1 - - 10 -
15.03.2019 02:00:00 11,0 7,0 5 3 SO - 10 -
15.03.2019 01:00:00 11,2 6,9 16 9 ONO 1013,1 10 -
15.03.2019 00:00:00 11,0 7,0 21 11 O - 10 -
14.03.2019 23:00:00 11,0 7,0 24 13 O - 10 -
14.03.2019 22:00:00 11,5 7,4 24 13 ONO 1013,1 10 0,0
14.03.2019 21:00:00 11,0 6,0 8 4 OSO - 10 -
14.03.2019 20:00:00 11,0 7,0 9 5 OSO - 10 -
14.03.2019 19:00:00 10,7 6,3 15 8 OSO 1013,1 10 -
14.03.2019 18:00:00 13,0 5,0 8 4 O - 10 -
14.03.2019 17:00:00 14,0 7,0 13 7 ONO - 10 -
14.03.2019 16:00:00 13,5 3,0 8 4 NE 1012,5 10 0,0
14.03.2019 15:00:00 - - - - - - - -
14.03.2019 14:00:00 13,0 4,0 5 3 - - 10 -
14.03.2019 13:00:00 12,4 4,4 11 6 E 1012,3 8 -
14.03.2019 12:00:00 13,0 5,0 11 6 NE - 10 -
14.03.2019 11:00:00 13,0 5,0 13 7 ENE - 10 -
14.03.2019 10:00:00 12,4 6,5 13 7 NE 1011,3 10 0,0
14.03.2019 09:00:00 10,0 8,0 11 6 NNE - 10 -
14.03.2019 08:00:00 8,0 7,0 9 5 N - 10 -
14.03.2019 07:00:00 7,8 6,6 8 4 NNO 1009,7 10 -
14.03.2019 06:00:00 9,0 7,0 11 6 O - 10 -
14.03.2019 05:00:00 8,0 7,0 5 3 SE - 10 -
14.03.2019 04:00:00 8,7 7,9 5 3 ENE 1009,9 9 0,0
14.03.2019 03:00:00 9,0 8,0 8 4 E - 10 -
14.03.2019 02:00:00 9,0 7,0 5 3 - - 9 -
14.03.2019 01:00:00 10,5 9,5 11 6 SSO 1012,2 9 -
14.03.2019 00:00:00 10,0 9,0 16 9 SO - 8 -
13.03.2019 23:00:00 11,0 9,0 18 10 OSO - 9 -
13.03.2019 22:00:00 11,1 9,2 21 11 SO 1013,7 10 0,0
13.03.2019 21:00:00 11,0 9,0 11 6 SO - 7 -
13.03.2019 20:00:00 11,0 10,0 11 6 SSO - 10 -
13.03.2019 19:00:00 11,5 9,2 13 7 SSO 1014,8 8 -
13.03.2019 18:00:00 12,0 7,0 15 8 SSO - 10 -
13.03.2019 17:00:00 13,0 6,0 13 7 SSO - 10 -
13.03.2019 16:00:00 13,1 5,2 18 10 S 1015,4 10 0,0
13.03.2019 15:00:00 14,0 3,0 16 9 S - 10 -
13.03.2019 14:00:00 14,0 2,0 15 8 SO - 10 -
13.03.2019 13:00:00 14,1 2,9 13 7 S 1017,0 10 -
13.03.2019 12:00:00 13,0 0,0 11 6 S - 10 -
13.03.2019 11:00:00 12,0 -2,0 11 6 S - 10 -
13.03.2019 10:00:00 12,3 -2,8 5 3 - 1018,7 10 0,0
13.03.2019 09:00:00 10,0 -1,0 4 2 - - 10 -
13.03.2019 08:00:00 7,0 -3,0 2 1 - - 10 -
13.03.2019 07:00:00 2,0 -3,0 4 2 - - 10 -
13.03.2019 06:00:00 3,0 -2,0 4 2 - - 10 -
13.03.2019 05:00:00 4,0 -3,0 4 2 N - 10 -
13.03.2019 04:00:00 3,6 -2,8 9 5 NO 1019,7 10 0,0
13.03.2019 03:00:00 4,0 -3,0 5 3 ONO - 10 -
13.03.2019 02:00:00 3,0 -3,0 8 4 NO - 10 -
13.03.2019 01:00:00 6,1 -3,6 9 5 E 1020,4 10 -
13.03.2019 00:00:00 6,0 -4,0 9 5 NNE - 10 -
12.03.2019 23:00:00 8,0 -4,0 16 9 NNE - 10 -
12.03.2019 22:00:00 7,3 -3,4 5 3 ESE 1020,9 10 0,0
12.03.2019 21:00:00 9,0 -4,0 21 11 NE - 10 -
12.03.2019 20:00:00 9,0 -5,0 21 11 NE - 10 -

tt = Temperatura
td = dewpoint
ff = velocità del vento
dd = direzione del vento
ppp = reduced air pressure
vv = visibility
rr = precipitazioni

Stazioni seguenti

WeatherPro
AMSI
MeteoEarth